Starlink 3850

operational
NORAD ID: 52342 Int'l Des: 2022-045 Owner: SPXS Country: US Constellation: starlink
LEOCIRCULAR

关于 Starlink 3850

正在加载描述...

实时位置

正在加载3D地球...

即将过境

高度历史

Altitude vs Time

uPlot chart will show altitude changes over time

两行轨道根数

1 52342U 22045M 26073.69373585 .00001025 00000-0 82491-4 0 9999
2 52342 53.2170 176.7715 0001356 102.2200 257.8945 15.08848034216530
Epoch: Mar 14, 2026 • Age: 17 hours

当前状态

高度 553.1 km
速度 7.58 km/s
星下点 -39.02°S, 74.11°E
发射日期 Apr 29, 2022
运行时间 3.8 years
类型 internet

技术详情

分类 Payload
质量 297.00 kg
干质量 275.00 kg
总质量 297.00 kg
长度 0.20 m
直径 2.80 m
跨度 9.00 m
形状 Box + pan
制造商 SPXS
平台类型 Starlink
阶段状态 In Orbit
所有者/国家 SPXS/US

大型星座

Loading constellations...